User: anonymous   Login
Location: Nelson
(41.2830°S, 173.2830°E)
Time: 09:37:27
(UTC+12:00)
Language:

Cosmos 1842 Rocket - Orbit

View from above orbital plane
View from above orbital plane
View from above satellite
View from above satellite

Ground track
Ground track

The orbit data is extracted from the following two-line orbital elements,

1 17912U 87038B   21212.53170081  .00000071  00000-0  58483-5 0  9990
2 17912  82.5006  77.8024 0019145 316.3554  43.6146 14.83088422829753
Epoch (UTC): 31 July 2021 12:45:38
Eccentricity: 0.0019145
inclination: 82.5006°
perigee height: 606 km
apogee height: 633 km
right ascension of ascending node: 77.8024°
argument of perigee: 316.3554°
revolutions per day: 14.83088422
mean anomaly at epoch: 43.6146°
orbit number at epoch: 82975

The dashed part of the orbit path shows where the satellite is in the earth's shadow,  

DLR